SCP
-0 -0 -0 -0 -0 -0 -0 -0 -0 -0 -0 -0 -0 -0 -0 -0 -0 -0 -0 -0 0 0 0 -0 0 -0 -0 -0 -0 -0 -0 -0 -0 -0 -0 -0 -0 -0 -0 -0 -0 -0 -0
-0 -0 -0 -0 -0 -0 -0 -0 -0 -0 -0 -0 -0 -0 -0 -0 -0 -0 -0 -0 0 0 0 -0 0 0 0 0 -0 -0 -0 -0 -0 -0 -0 -0 -0 -0 -0 -0 -0 -0 -0
-0 -0 -0 -0 -0 -0 -0 -0 -0 -0 -0 -0 -0 -0 -0 -0 -0 -0 -0 -0 -0 -0 -0 -0 -0 -0 -0 -0 -0 -0 -0 -0 -0 -0 -0 0 0 -0 -0 -0 -0 -0 -0
-0 -0 -0 -0 -0 -0 -0 -0 -0 -0 -0 -0 -0 -0 -0 -0 -0 -0 -0 -0 -0 -0 -0 -0 -0 -0 -0 -0 -0 -0 -0 -0 -0 -0 0 0 0 -0 -0 -0 -0 -0 -0
-0 -0 -0 -0 -0 -0 -0 -0 -0 -0 -0 -0 -0 -0 -0 -0 -0 -0 -0 -0 -0 -0 -0 -0 -0 -0 -0 -0 -0 -0 -0 -0 -0 -0 -0 0 0 -0 -0 -0 -0 -0 -0
0 0 -0 -0 -0 -0 -0 -0 -0 -0 -0 -0 -0 -0 -0 -0 -0 -0 -0 -0 -0 -0 -0 -0 -0 -0 -0 -0 -0 -0 -0 -0 -0 0 0 0 0 -0 -0 -0 -0 -0 -0
-0 -0 -0 -0 -0 -0 -0 -0 -0 -0 -0 -0 -0 -0 -0 -0 -0 -0 -0 -0 -0 -0 -0 -0 -0 -0 -0 -0 -0 -0 -0 -0 0 0 0 0 0 -0 -0 -0 -0 -0 -0
-0 -0 -0 -0 -0 -0 -0 -0 -0 -0 -0 -0 -0 -0 -0 -0 -0 -0 -0 -0 -0 -0 -0 -0 -0 -0 -0 -0 -0 -0 -0 -0 0 0 0 0 -0 -0 -0 -0 -0 -0 -0
-0 0 -0 -0 -0 -0 -0 -0 -0 -0 -0 -0 -0 -0 -0 -0 -0 -0 -0 -0 -0 -0 -0 -0 -0 -0 -0 -0 -0 -0 -0 -0 0 0 0 0 -0 -0 -0 -0 0 0 0
0 0 0 0 0 0 0 -0 -0 -0 -0 -0 -0 -0 -0 -0 -0 0 0 -0 -0 -0 -0 -0 -0 -0 -0 -0 -0 -0 -0 -0 0 0 0 0 -0 -0 -0 -0 -0 0 0
0 0 0 0 0 0 0 0 0 -0 -0 -0 -0 -0 -0 0 0 0 0 -0 -0 -0 -0 -0 -0 -0 -0 -0 -0 -0 -0 0 0 0 0 0 -0 -0 -0 -0 0 0 0
0 0 0 0 0 0 0 0 0 0 0 0 0 0 0 0 0 0 0 0 0 0 -0 -0 -0 -0 0 0 0 0 0 0 0 0 0 0 0 0 0 0 0 0 0
0 0 0 0 0 0 0 0 0 0 0 0 0 0 0 0 0 0 0 0 0 0 0 0 0 0 0 0 0 0 0 0 0 0 0 0 0 0 0 0 0 0 0
0 0 0 0 0 0 0 0 0 0 0 0 0 0 0 0 0 0 0 0 0 0 0 0 0 0 0 0 0 0 0 0 0 0 0 0 -0 -0 -0 -0 0 0 0
0 0 0 0 0 0 0 0 0 0 0 0 0 0 0 0 0 0 0 0 0 0 0 0 0 0 0 0 0 0 0 0 0 0 0 -0 -0 -0 -0 -0 0 0 0
0 0 0 0 0 0 0 0 0 0 0 0 0 0 0 0 0 0 0 0 0 0 0 0 0 0 0 0 0 0 0 0 0 0 0 0 -0 0 0 0 0 0 0
0 0 0 0 0 0 0 0 0 0 0 0 0 0 0 0 0 0 0 0 0 0 0 0 0 0 0 0 0 0 0 0 0 0 0 0 0 0 0 0 0 0 0
0 0 0 0 0 0 0 0 0 0 0 0 0 0 0 0 0 0 0 0 0 0 0 0 0 0 0 0 0 0 0 0 0 0 0 0 0 0 0 0 0 0 0
0 0 0 0 0 0 0 0 0 0 0 0 0 0 0 0 0 0 0 0 0 0 0 0 0 0 0 0 0 0 0 0 0 0 0 0 0 0 0 0 0 0 0
0 0 0 0 0 0 0 0 0 0 0 0 0 0 0 0 0 0 0 0 0 0 0 0 0 0 0 0 0 0 0 0 0 0 0 0 0 0 0 0 0 0 0
0 0 0 0 0 0 0 0 0 0 0 0 0 0 0 0 0 0 0 0 0 0 0 0 0 0 0 0 0 0 0 0 0 0 0 0 0 0 0 0 0 0 0
0 0 0 0 0 0 0 0 0 0 0 0 0 0 0 0 0 0 0 0 0 0 0 0 0 0 0 0 0 0 0 0 0 0 0 0 0 0 0 0 0 0 0
0 0 0 0 0 0 0 0 0 0 0 0 0 0 0 0 0 0 0 0 0 0 0 0 0 0 0 0 0 0 0 0 0 0 0 0 0 0 0 0 0 0 0
0 0 0 0 0 0 0 0 0 0 0 0 0 0 0 0 0 0 0 0 0 0 0 0 0 0 0 0 0 0 0 0 0 0 0 0 0 0 0 0 0 0 0
0 0 0 0 0 0 0 0 0 0 0 0 0 0 0 0 0 0 0 0 0 0 0 0 0 0 0 0 0 0 0 0 0 0 0 0 0 0 0 0 0 0 0
0 0 0 0 0 0 0 0 0 0 0 0 0 0 0 0 0 0 0 0 0 0 0 0 0 0 0 0 0 0 0 0 0 0 0 0 0 0 0 0 0 0 0
Wind_Speed_500mb
32 28 29 30 29 27 24 21 24 22 18 18 23 25 25 25 26 25 25 24 23 23 26 26 25 26 25 27 26 24 25 26 23 21 22 24 31 35 34 34 37 37 36
30 32 29 28 27 26 24 21 21 20 16 18 21 23 23 24 24 25 23 22 22 24 24 24 22 22 23 28 27 27 29 30 30 25 23 19 21 22 22 23 27 29 30
32 32 30 27 26 25 23 22 21 18 12 12 16 20 22 23 25 25 24 23 22 22 22 21 19 20 21 26 27 26 28 30 30 31 28 28 24 24 23 21 19 17 20
32 33 31 29 25 22 21 20 18 15 11 9 13 19 20 24 27 27 27 26 25 22 21 21 18 17 19 24 21 23 31 35 36 34 36 34 30 29 28 26 24 23 21
33 32 31 29 25 23 21 18 15 12 11 8 10 14 18 22 25 28 28 27 26 23 22 21 18 18 18 18 18 21 24 27 30 32 32 34 32 32 31 30 28 27 25
34 31 30 28 26 24 22 18 15 11 10 7 7 10 14 19 22 24 25 25 24 22 22 21 19 18 19 19 16 19 19 20 23 27 28 29 31 31 30 30 30 29 28
33 30 28 26 25 24 22 20 16 12 10 7 8 7 11 15 18 22 23 23 23 22 23 22 21 20 19 19 14 11 13 14 17 19 24 26 30 29 29 28 28 27 27
32 28 23 22 20 20 19 19 17 15 13 11 13 10 8 10 13 17 19 21 22 22 22 22 21 20 19 16 12 10 11 14 15 20 24 26 28 29 30 31 30 29 29
35 34 30 29 23 19 18 16 18 16 14 13 13 11 6 6 9 13 17 18 19 20 20 21 21 18 16 14 12 11 11 14 15 19 20 22 23 25 27 31 32 30 29
38 41 37 32 33 30 29 25 21 21 18 17 15 13 9 7 8 14 18 20 18 19 19 19 19 19 17 15 13 12 14 14 15 17 18 22 20 22 24 23 23 34 36
42 45 41 36 37 36 36 30 24 20 17 15 15 14 12 4 7 12 15 19 20 21 22 20 18 17 15 14 13 14 13 13 13 15 18 18 18 20 19 20 21 23 18
46 46 47 46 36 35 37 32 28 28 25 23 20 20 16 11 4 5 5 11 17 18 20 20 19 17 15 15 15 15 14 17 17 17 20 19 30 32 27 25 24 23 22
46 47 47 50 45 40 40 38 34 36 32 30 28 25 24 20 14 9 10 3 4 7 12 14 15 14 13 13 13 12 14 14 17 18 19 17 26 41 40 40 41 42 39
50 48 48 51 52 47 46 45 42 41 35 36 34 33 30 25 22 18 16 12 10 3 4 3 5 5 5 6 8 9 11 14 16 16 16 17 17 26 37 43 46 44 44
53 51 50 51 51 52 51 46 47 47 41 40 40 37 31 31 28 27 23 21 19 14 6 8 4 4 3 1 4 7 10 14 17 20 24 25 26 29 33 45 46 48 43
55 54 52 53 54 55 55 54 47 49 47 44 43 42 36 36 35 33 29 28 27 19 13 12 8 8 6 5 4 7 11 16 21 26 31 32 34 35 36 38 44 48 49
54 53 53 53 55 57 59 60 59 52 52 53 46 43 41 40 39 40 38 41 31 23 18 15 13 12 10 9 9 11 15 21 24 26 28 30 31 31 31 32 31 32 37
57 57 55 55 56 58 60 59 58 58 59 55 55 52 51 45 49 42 39 43 33 26 21 18 19 16 15 16 13 16 19 21 23 23 23 24 26 28 29 31 32 32 31
60 58 57 55 53 53 55 56 58 62 59 62 59 55 53 53 45 53 46 40 35 28 28 25 24 17 24 22 19 22 23 20 18 18 18 21 26 27 28 30 29 28 30
64 62 60 60 58 56 53 53 53 53 59 59 60 59 58 53 53 55 50 52 45 37 33 29 24 27 24 23 30 29 24 17 13 11 14 18 21 25 29 30 31 33 35
69 68 67 67 64 59 56 57 56 60 59 56 55 83 60 64 52 46 46 46 39 40 35 33 35 33 37 37 34 30 24 16 9 9 13 17 22 27 28 29 31 32 33
75 72 72 69 65 60 57 57 60 58 68 66 59 57 50 43 50 55 59 55 44 46 40 41 39 45 45 42 31 22 21 14 9 3 9 15 20 24 26 29 31 33 36
82 79 75 72 67 62 60 57 59 62 65 64 66 64 61 58 49 47 57 51 49 43 42 40 39 37 44 42 35 18 14 13 18 9 2 11 18 20 23 26 29 32 37
87 83 79 75 68 65 61 57 60 69 71 70 63 64 62 54 55 58 51 49 47 46 45 45 42 36 32 33 35 27 21 14 14 13 9 4 12 16 21 24 28 33 38
80 86 79 74 68 65 59 54 54 71 71 67 70 69 62 55 56 53 51 50 50 50 49 46 44 40 33 28 29 29 23 17 14 13 13 6 5 12 15 19 24 30 35
63 79 79 74 71 64 59 57 66 68 69 74 73 71 64 58 60 57 54 53 55 55 51 47 43 39 35 31 28 24 18 16 14 11 12 8 1 6 9 17 22 30 35
Wind_Direction_500mb
160 159 154 158 156 153 144 133 127 116 108 99 85 73 67 67 64 62 63 65 72 69 73 77 76 78 74 71 63 64 63 69 71 75 69 77 80 76 77 79 76 67 64
166 165 159 156 156 153 150 139 126 112 106 91 79 68 58 58 56 57 59 66 65 68 72 79 87 86 80 69 61 62 62 68 68 69 68 66 74 73 74 70 66 74 72
172 167 163 161 158 157 153 145 135 128 124 98 88 66 69 67 58 53 61 71 77 75 74 74 81 81 84 73 71 55 51 60 62 58 61 61 73 70 66 65 62 56 59
169 171 170 170 168 166 163 157 145 136 132 104 86 69 61 61 66 63 63 66 69 72 77 81 88 91 90 78 76 58 58 57 57 59 57 58 67 64 63 62 64 64 66
170 173 175 176 176 177 176 171 161 149 137 115 100 68 72 70 60 57 58 61 64 67 70 77 87 91 96 89 75 62 59 48 46 47 47 54 57 57 56 56 55 56 57
170 174 176 179 181 185 186 184 180 165 151 137 126 85 79 76 67 60 55 60 66 70 70 73 78 92 104 101 85 73 55 39 33 40 52 56 58 57 55 57 56 54 54
169 180 179 181 185 189 191 194 192 187 181 176 155 117 90 74 62 57 59 62 66 71 74 81 90 100 106 110 105 94 50 33 36 47 53 56 58 57 57 56 58 58 58
176 184 187 184 191 195 197 202 202 199 193 193 174 163 120 80 60 57 58 66 72 74 77 80 86 96 107 112 104 78 61 49 53 54 54 51 48 47 47 45 44 43 43
176 177 194 204 204 200 220 216 217 211 206 202 193 178 150 106 77 66 62 67 82 88 86 85 85 86 90 93 89 75 64 59 54 56 53 57 56 55 56 54 49 46 45
180 184 193 207 206 205 208 221 221 220 216 209 205 196 186 173 104 75 63 70 80 89 89 88 89 90 89 89 87 80 67 61 57 58 57 53 44 45 47 45 56 62 55
194 194 197 198 219 215 217 222 219 221 222 225 215 206 197 205 94 72 62 76 74 84 88 87 86 89 89 88 83 74 68 66 62 65 67 56 45 44 40 36 33 36 38
203 204 205 206 209 217 218 220 221 220 211 218 228 222 227 243 208 153 99 75 65 80 87 84 84 88 90 86 80 73 64 59 54 52 52 37 50 48 39 33 29 28 30
212 214 215 220 220 219 218 220 218 222 223 215 215 223 231 231 228 217 208 173 63 47 63 68 72 83 85 81 74 65 58 48 44 44 50 41 57 61 62 62 60 54 48
219 222 225 227 230 226 218 220 222 225 227 223 221 216 219 235 232 231 211 195 187 241 323 355 42 58 79 81 60 49 47 40 32 35 44 42 47 61 63 57 55 52 52
228 232 234 235 233 231 227 220 224 223 228 234 228 222 224 239 238 227 216 210 200 184 230 284 290 272 205 143 61 55 50 43 47 59 65 70 67 64 64 59 58 59 58
232 235 236 236 235 234 231 230 221 223 221 230 232 232 232 234 240 227 227 218 206 198 210 227 246 220 197 155 132 85 65 73 79 79 77 73 71 70 67 65 60 58 55
237 237 237 236 235 234 234 234 231 218 223 223 228 234 236 236 241 231 228 234 206 206 221 229 245 214 192 154 139 106 95 92 90 84 78 72 67 60 56 51 45 42 41
237 239 239 236 233 232 232 233 230 220 223 225 228 230 227 233 233 232 231 220 227 213 228 226 230 205 183 170 144 122 113 107 93 80 67 54 45 40 33 34 29 27 21
241 241 238 233 230 230 231 230 228 220 220 227 229 229 234 231 234 228 230 218 214 219 232 219 223 206 182 165 150 134 122 112 96 76 55 40 32 26 23 23 20 18 17
241 239 237 235 233 233 232 230 226 219 218 227 228 230 231 234 233 231 217 222 233 223 225 214 202 187 191 182 158 142 128 115 97 71 46 32 23 19 17 15 12 12 12
240 240 238 237 235 234 230 224 222 215 212 221 226 230 233 236 216 221 229 204 204 231 221 207 197 197 182 172 163 148 140 134 122 70 39 23 14 12 8 6 8 7 7
242 242 239 237 236 236 233 231 222 214 215 220 229 232 229 222 235 208 201 221 232 220 200 199 204 187 180 175 175 166 160 168 173 78 18 8 6 5 1 4 5 4 2
240 240 237 235 233 233 234 229 218 214 215 217 219 216 217 220 214 223 222 221 215 205 200 195 189 196 186 182 186 193 174 188 181 193 298 352 354 356 5 5 5 4 2
242 237 235 233 232 232 233 225 220 217 216 213 214 217 214 217 220 213 214 209 204 197 194 186 184 192 200 202 198 209 213 196 177 173 189 338 350 353 360 0 2 2 360
243 236 232 230 229 231 229 224 220 216 217 217 217 210 209 212 212 208 203 202 199 191 188 188 188 190 193 201 198 192 184 185 192 187 186 205 301 346 358 358 359 358 354
242 234 229 228 229 228 225 216 212 221 216 216 209 209 204 205 206 202 202 199 193 189 189 189 190 193 196 194 192 192 197 196 193 192 185 196 152 352 355 359 358 352 351
Wind_Speed_850mb
32 28 29 30 29 27 24 21 24 22 18 18 23 25 25 25 26 25 25 24 23 23 26 26 25 26 25 27 26 24 25 26 23 21 22 24 31 35 34 34 37 37 36
30 32 29 28 27 26 24 21 21 20 16 18 21 23 23 24 24 25 23 22 22 24 24 24 22 22 23 28 27 27 29 30 30 25 23 19 21 22 22 23 27 29 30
32 32 30 27 26 25 23 22 21 18 12 12 16 20 22 23 25 25 24 23 22 22 22 21 19 20 21 26 27 26 28 30 30 31 28 28 24 24 23 21 19 17 20
32 33 31 29 25 22 21 20 18 15 11 9 13 19 20 24 27 27 27 26 25 22 21 21 18 17 19 24 21 23 31 35 36 34 36 34 30 29 28 26 24 23 21
33 32 31 29 25 23 21 18 15 12 11 8 10 14 18 22 25 28 28 27 26 23 22 21 18 18 18 18 18 21 24 27 30 32 32 34 32 32 31 30 28 27 25
34 31 30 28 26 24 22 18 15 11 10 7 7 10 14 19 22 24 25 25 24 22 22 21 19 18 19 19 16 19 19 20 23 27 28 29 31 31 30 30 30 29 28
33 30 28 26 25 24 22 20 16 12 10 7 8 7 11 15 18 22 23 23 23 22 23 22 21 20 19 19 14 11 13 14 17 19 24 26 30 29 29 28 28 27 27
32 28 23 22 20 20 19 19 17 15 13 11 13 10 8 10 13 17 19 21 22 22 22 22 21 20 19 16 12 10 11 14 15 20 24 26 28 29 30 31 30 29 29
35 34 30 29 23 19 18 16 18 16 14 13 13 11 6 6 9 13 17 18 19 20 20 21 21 18 16 14 12 11 11 14 15 19 20 22 23 25 27 31 32 30 29
38 41 37 32 33 30 29 25 21 21 18 17 15 13 9 7 8 14 18 20 18 19 19 19 19 19 17 15 13 12 14 14 15 17 18 22 20 22 24 23 23 34 36
42 45 41 36 37 36 36 30 24 20 17 15 15 14 12 4 7 12 15 19 20 21 22 20 18 17 15 14 13 14 13 13 13 15 18 18 18 20 19 20 21 23 18
46 46 47 46 36 35 37 32 28 28 25 23 20 20 16 11 4 5 5 11 17 18 20 20 19 17 15 15 15 15 14 17 17 17 20 19 30 32 27 25 24 23 22
46 47 47 50 45 40 40 38 34 36 32 30 28 25 24 20 14 9 10 3 4 7 12 14 15 14 13 13 13 12 14 14 17 18 19 17 26 41 40 40 41 42 39
50 48 48 51 52 47 46 45 42 41 35 36 34 33 30 25 22 18 16 12 10 3 4 3 5 5 5 6 8 9 11 14 16 16 16 17 17 26 37 43 46 44 44
53 51 50 51 51 52 51 46 47 47 41 40 40 37 31 31 28 27 23 21 19 14 6 8 4 4 3 1 4 7 10 14 17 20 24 25 26 29 33 45 46 48 43
55 54 52 53 54 55 55 54 47 49 47 44 43 42 36 36 35 33 29 28 27 19 13 12 8 8 6 5 4 7 11 16 21 26 31 32 34 35 36 38 44 48 49
54 53 53 53 55 57 59 60 59 52 52 53 46 43 41 40 39 40 38 41 31 23 18 15 13 12 10 9 9 11 15 21 24 26 28 30 31 31 31 32 31 32 37
57 57 55 55 56 58 60 59 58 58 59 55 55 52 51 45 49 42 39 43 33 26 21 18 19 16 15 16 13 16 19 21 23 23 23 24 26 28 29 31 32 32 31
60 58 57 55 53 53 55 56 58 62 59 62 59 55 53 53 45 53 46 40 35 28 28 25 24 17 24 22 19 22 23 20 18 18 18 21 26 27 28 30 29 28 30
64 62 60 60 58 56 53 53 53 53 59 59 60 59 58 53 53 55 50 52 45 37 33 29 24 27 24 23 30 29 24 17 13 11 14 18 21 25 29 30 31 33 35
69 68 67 67 64 59 56 57 56 60 59 56 55 83 60 64 52 46 46 46 39 40 35 33 35 33 37 37 34 30 24 16 9 9 13 17 22 27 28 29 31 32 33
75 72 72 69 65 60 57 57 60 58 68 66 59 57 50 43 50 55 59 55 44 46 40 41 39 45 45 42 31 22 21 14 9 3 9 15 20 24 26 29 31 33 36
82 79 75 72 67 62 60 57 59 62 65 64 66 64 61 58 49 47 57 51 49 43 42 40 39 37 44 42 35 18 14 13 18 9 2 11 18 20 23 26 29 32 37
87 83 79 75 68 65 61 57 60 69 71 70 63 64 62 54 55 58 51 49 47 46 45 45 42 36 32 33 35 27 21 14 14 13 9 4 12 16 21 24 28 33 38
80 86 79 74 68 65 59 54 54 71 71 67 70 69 62 55 56 53 51 50 50 50 49 46 44 40 33 28 29 29 23 17 14 13 13 6 5 12 15 19 24 30 35
63 79 79 74 71 64 59 57 66 68 69 74 73 71 64 58 60 57 54 53 55 55 51 47 43 39 35 31 28 24 18 16 14 11 12 8 1 6 9 17 22 30 35
Wind_Direction_850mb
160 159 154 158 156 153 144 133 127 116 108 99 85 73 67 67 64 62 63 65 72 69 73 77 76 78 74 71 63 64 63 69 71 75 69 77 80 76 77 79 76 67 64
166 165 159 156 156 153 150 139 126 112 106 91 79 68 58 58 56 57 59 66 65 68 72 79 87 86 80 69 61 62 62 68 68 69 68 66 74 73 74 70 66 74 72
172 167 163 161 158 157 153 145 135 128 124 98 88 66 69 67 58 53 61 71 77 75 74 74 81 81 84 73 71 55 51 60 62 58 61 61 73 70 66 65 62 56 59
169 171 170 170 168 166 163 157 145 136 132 104 86 69 61 61 66 63 63 66 69 72 77 81 88 91 90 78 76 58 58 57 57 59 57 58 67 64 63 62 64 64 66
170 173 175 176 176 177 176 171 161 149 137 115 100 68 72 70 60 57 58 61 64 67 70 77 87 91 96 89 75 62 59 48 46 47 47 54 57 57 56 56 55 56 57
170 174 176 179 181 185 186 184 180 165 151 137 126 85 79 76 67 60 55 60 66 70 70 73 78 92 104 101 85 73 55 39 33 40 52 56 58 57 55 57 56 54 54
169 180 179 181 185 189 191 194 192 187 181 176 155 117 90 74 62 57 59 62 66 71 74 81 90 100 106 110 105 94 50 33 36 47 53 56 58 57 57 56 58 58 58
176 184 187 184 191 195 197 202 202 199 193 193 174 163 120 80 60 57 58 66 72 74 77 80 86 96 107 112 104 78 61 49 53 54 54 51 48 47 47 45 44 43 43
176 177 194 204 204 200 220 216 217 211 206 202 193 178 150 106 77 66 62 67 82 88 86 85 85 86 90 93 89 75 64 59 54 56 53 57 56 55 56 54 49 46 45
180 184 193 207 206 205 208 221 221 220 216 209 205 196 186 173 104 75 63 70 80 89 89 88 89 90 89 89 87 80 67 61 57 58 57 53 44 45 47 45 56 62 55
194 194 197 198 219 215 217 222 219 221 222 225 215 206 197 205 94 72 62 76 74 84 88 87 86 89 89 88 83 74 68 66 62 65 67 56 45 44 40 36 33 36 38
203 204 205 206 209 217 218 220 221 220 211 218 228 222 227 243 208 153 99 75 65 80 87 84 84 88 90 86 80 73 64 59 54 52 52 37 50 48 39 33 29 28 30
212 214 215 220 220 219 218 220 218 222 223 215 215 223 231 231 228 217 208 173 63 47 63 68 72 83 85 81 74 65 58 48 44 44 50 41 57 61 62 62 60 54 48
219 222 225 227 230 226 218 220 222 225 227 223 221 216 219 235 232 231 211 195 187 241 323 355 42 58 79 81 60 49 47 40 32 35 44 42 47 61 63 57 55 52 52
228 232 234 235 233 231 227 220 224 223 228 234 228 222 224 239 238 227 216 210 200 184 230 284 290 272 205 143 61 55 50 43 47 59 65 70 67 64 64 59 58 59 58
232 235 236 236 235 234 231 230 221 223 221 230 232 232 232 234 240 227 227 218 206 198 210 227 246 220 197 155 132 85 65 73 79 79 77 73 71 70 67 65 60 58 55
237 237 237 236 235 234 234 234 231 218 223 223 228 234 236 236 241 231 228 234 206 206 221 229 245 214 192 154 139 106 95 92 90 84 78 72 67 60 56 51 45 42 41
237 239 239 236 233 232 232 233 230 220 223 225 228 230 227 233 233 232 231 220 227 213 228 226 230 205 183 170 144 122 113 107 93 80 67 54 45 40 33 34 29 27 21
241 241 238 233 230 230 231 230 228 220 220 227 229 229 234 231 234 228 230 218 214 219 232 219 223 206 182 165 150 134 122 112 96 76 55 40 32 26 23 23 20 18 17
241 239 237 235 233 233 232 230 226 219 218 227 228 230 231 234 233 231 217 222 233 223 225 214 202 187 191 182 158 142 128 115 97 71 46 32 23 19 17 15 12 12 12
240 240 238 237 235 234 230 224 222 215 212 221 226 230 233 236 216 221 229 204 204 231 221 207 197 197 182 172 163 148 140 134 122 70 39 23 14 12 8 6 8 7 7
242 242 239 237 236 236 233 231 222 214 215 220 229 232 229 222 235 208 201 221 232 220 200 199 204 187 180 175 175 166 160 168 173 78 18 8 6 5 1 4 5 4 2
240 240 237 235 233 233 234 229 218 214 215 217 219 216 217 220 214 223 222 221 215 205 200 195 189 196 186 182 186 193 174 188 181 193 298 352 354 356 5 5 5 4 2
242 237 235 233 232 232 233 225 220 217 216 213 214 217 214 217 220 213 214 209 204 197 194 186 184 192 200 202 198 209 213 196 177 173 189 338 350 353 360 0 2 2 360
243 236 232 230 229 231 229 224 220 216 217 217 217 210 209 212 212 208 203 202 199 191 188 188 188 190 193 201 198 192 184 185 192 187 186 205 301 346 358 358 359 358 354
242 234 229 228 229 228 225 216 212 221 216 216 209 209 204 205 206 202 202 199 193 189 189 189 190 193 196 194 192 192 197 196 193 192 185 196 152 352 355 359 358 352 351